sat.trackr.live / text

‹ back to catalog

GPS BIIF-9 (PRN 26)

NORAD 40534 · 2015-013A

PAYLOAD ACTIVE UNKNOWN

§ Identity

Operator
Country
US
Launch date
2015-03-25
Launch site
AFETR
Launch vehicle
Mass (kg)
RCS (m²)
30.74

Purposes: earth_obs, nav

External: N2YO · Heavens-Above · Gunter

§ Orbital elements

Epoch: 2026-09-17T19:06:59.773824Z

Period
717.95 min
Inclination
53.1567°
Eccentricity
0.0113122
Mean motion
2.00570574 rev/d
Perigee alt
19,881.1 km
Apogee alt
20,482.0 km
Semi-major
26,559.7 km
B*
0.0000e+0
RAAN
200.3502°
Arg perigee
41.2003°
Mean anomaly
319.6409°
Rev number
8,368

§ Raw data

GPS BIIF-9  (PRN 26)1 40534U 15013A   26260.79652516  .00000004  00000+0  00000+0 0  99952 40534  53.1567 200.3502 0113122  41.2003 319.6409  2.00570574 83684

JSON: /api/v1/satellites/40534 · /tle

For live sub-satellite position, see the globe view (requires WebGL).

§ Visibility from observer

Set your observer location to see the next 7 days of passes ≥ 10°. The values pass through the URL so the page stays shareable.

No JS? Fill the form by hand. The geolocation button needs JavaScript.